Regional Weather Roundup
Issued by NWS Upton, NY

Current Version | Previous Version | Text Only | Print | Product List | Glossary On
Versions: 1 2 3 4 5 6 7 8 9 10 11 12 13 14 15 16 17 18 19 20 21 22 23 24 25 26 27 28 29 30 31 32 33 34 35 36 37 38 39 40 41 42 43 44 45 46 47 48 49 50
000
ASUS41 KOKX 301708
RWROKX

REGIONAL WEATHER ROUNDUP
NATIONAL WEATHER SERVICE NEW YORK NY
100 PM EDT THU JUL 30 2015

NOTE: "FAIR" INDICATES FEW OR NO CLOUDS BELOW 12,000 FEET WITH NO
SIGNIFICANT WEATHER AND/OR OBSTRUCTIONS TO VISIBILITY.

NYZ071-072-176-178-NJZ106-104-301800-
NEW YORK CITY METRO AREA


CITY           SKY/WX    TMP DP  RH WIND       PRES   REMARKS
CENTRAL PARK   LGT RAIN  80  75  84 VRB3      29.89F
LAGUARDIA APRT PTSUNNY   86  72  62 SE14G20   29.85F HX  92
KENNEDY INTL   LGT RAIN  81  75  82 S21G26    29.88F
NEWARK/LIBERTY PTSUNNY   89  74  60 SW12      29.85F HX  98
BRNX BOT. GARD   N/A     82  73  74 S5        29.88F
TETERBORO      CLOUDY    86  73  65 SW8       29.84F HX  93
$$

NYZ177-179-078>081-301800-
LONG ISLAND NEW YORK

CITY           SKY/WX    TMP DP  RH WIND       PRES   REMARKS
FARMINGDALE    PTSUNNY   84  75  74 S17       29.89F HX  92
ISLIP          PTSUNNY   83  74  74 S20G26    29.87F
SHIRLEY        CLOUDY    81  74  79 S18G29    29.90F
WESTHAMPTON    CLOUDY    81  76  84 SW14G24   29.91F
MONTAUK POINT    N/A     81  74  79 SW8       29.92S
$$

NYZ052-065-067-301800-
HUDSON VALLEY

CITY           SKY/WX    TMP DP  RH WIND       PRES   REMARKS
WHITE PLAINS   DRIZZLE   81  74  79 VRB6      29.87F
NEWBURGH       PTSUNNY   84  75  74 W17G23    29.86F HX  92
MONTGOMERY     PTSUNNY   86  75  69 SW15G23   29.84F HX  95
POUGHKEEPSIE   LGT RAIN  80  75  84 S5        29.83S
ALBANY         CLOUDY    84  72  67 S13G20    29.79F
$$

NJZ001-105-106-008-010-013-015-019>022-104-301800-
NEW JERSEY

CITY           SKY/WX    TMP DP  RH WIND       PRES   REMARKS
NEWARK/LIBERTY PTSUNNY   89  74  60 SW12      29.85F HX  98
TETERBORO      CLOUDY    86  73  65 SW8       29.84F HX  93
CALDWELL       PTSUNNY   86  73  65 VRB5      29.85F HX  93
MORRISTOWN     PTSUNNY   90  75  62 W8G17     29.86F HX 100
SOMERVILLE     LGT RAIN  82  76  81 W3        29.84F
SUSSEX         CLOUDY    82  74  76 VRB3      29.86F
ANDOVER          N/A     83  75  77 S8        29.87F HX  90
TRENTON        PTSUNNY   89  74  60 SW15G22   29.86F HX  98
MILLVILLE      MOSUNNY   88  75  65 VRB7      29.90F HX  97
ATLANTIC CITY  MOSUNNY   87  74  64 S13       29.91F HX  95
WRIGHTSTOWN    PTSUNNY   87  75  67 SW12      29.86F HX  96
TOMS RIVER       N/A     88  72  58 SW13G22   29.89F HX  94
BELMAR         PTSUNNY   88  72  58 SW13G23   29.88F HX  94
$$

PAZ047>061-062-071-301800-
EASTERN PENNSYLVANIA

CITY           SKY/WX    TMP DP  RH WIND       PRES   REMARKS
PHILADELPHIA   PTSUNNY   88  74  63 S16       29.88F HX  96
ALLENTOWN      CLOUDY    85  75  72 SW9       29.86F HX  93
SCRANTON       LGT RAIN  78  75  90 W3        29.88F FOG
$$

CTZ002-004>006-009-010-012-RIZ004-006-007-MAZ004-011-015-301800-
SOUTHERN NEW ENGLAND
 IN CT

CITY           SKY/WX    TMP DP  RH WIND       PRES   REMARKS
BRADLEY INTL   CLOUDY    85  73  67 S10       29.83F HX  91
HARTFORD       PTSUNNY   86  73  65 S13G26    29.83F HX  93
DANBURY        CLOUDY    83  72  69 SW10      29.88F
WTRBRY/OXFORD  CLOUDY    82  72  69 S14       29.90F HAZE
BRIDGEPORT     CLOUDY    84  74  71 SW13      29.87F HX  91
MERIDEN        PTSUNNY   86  72  62 S12       29.86F HX  92
NEW HAVEN      CLOUDY    80  73  79 S8        29.88F
CHESTER        PTSUNNY   82  73  74 S13       29.90S
GROTON         CLOUDY    80  74  81 SW14      29.88F
WILLIMANTIC    PTSUNNY   85  72  65 SW14G21   29.86F HX  91

 IN RI

CITY           SKY/WX    TMP DP  RH WIND       PRES   REMARKS
PROVIDENCE     CLOUDY    86  73  65 SW15G25   29.87F HX  93
BLOCK ISLAND     N/A     79  75  89 SW20G25   29.91F
WESTERLY       CLOUDY    82  73  74 SW13G21   29.90S

 IN MA

CITY           SKY/WX    TMP DP  RH WIND       PRES   REMARKS
BOSTON         CLOUDY    89  71  55 SW18G24   29.82F HX  95
WORCESTER      CLOUDY    81  70  69 S15G22    29.88F
WESTFIELD      PTSUNNY   87  73  62 S15       29.82F HX  94
PROVINCETOWN   CLOUDY    81  66  61 S17G24    29.86F
NANTUCKET      MOSUNNY   79  72  79 SW13      29.91F
$$

ANZ330-335-338-340-345-350-353-355-301800-
COASTAL MARINE OBSERVATIONS


STATION/POSITION TIME  SKY/WX   TEMP    WIND        PRES    VSBY  WAVE
                                AIR SEA DIR/SP/G                  HT/PER
                 (UTC)          (F)     (DEG/KT/KT) (MB)    (MI)  (FT/S)
NY HARB ENTRANCE 1650            78 77  200/ 19/ 23 1011.3          4/ 5
4S FIRE IS       NOT AVBL
20S FIRE ISLAND  1650            77 76  210/ 16/ 17 1012.4          4/ 5
GREAT SOUTH BAY  1615            78 81  250/ 14/ 17   N/A
23SW MTP         1650            76 74  210/ 17/ 19 1012.0          3/ 8
HUDSON CANYON    NOT AVBL
KINGS POINT      1600            79 70  190/  9/ 11 1011.2
EXECUTION ROCKS  1600            78     190/  6/  6   N/A
CENTRAL LI SOUND NOT AVBL
EASTERN LI SOUND 1600            75 69  210/ 10/ 14   N/A
ROBBINS REEF     1600            79     170/  9/  9 1010.7
$$


>>>>>>>>>>>>>>>>>>>>>>>>>>>> KEY <<<<<<<<<<<<<<<<<<<<<<<<<<<
>                                                          <
>     SKY/WX - SKY CONDITION/PRESENT WEATHER               <
>     TMP    - TEMPERATURE IN FAHRENHEIT                   <
>     DP     - DEWPOINT IN FAHRENHEIT                      <
>     RH     - RELATIVE HUMIDITY IN PERCENT                <
>     WIND   - DIRECTION AND SPEED IN MPH                  <
>     PRES   - MEAN SEA LEVEL PRESSURE IN INCHES OF HG     <
>     WCI    - WIND CHILL INDEX                            <
>     VSB    - VISIBILITY IN MILES                         <
>     HX     - HEAT INDEX                                  <
>     TC     - TEMPERATURE IN CELSIUS                      <
>     VRB    - VARIABLE WIND DIRECTION                     <
>                                                          <
>>>>>>>>>>>>>>>>>>>>>>>>>>>> KEY <<<<<<<<<<<<<<<<<<<<<<<<<<<




USA.gov is the U.S. government's official web portal to all federal, state and local government web resources and services.